TimeCDT,TemperatureF,Dew PointF,Humidity,Sea Level PressureIn,VisibilityMPH,Wind Direction,Wind SpeedMPH,Gust SpeedMPH,PrecipitationIn,Events,Conditions,WindDirDegrees,DateUTC
12:15 AM,44.4,43.7,97,30.01,5.0,Calm,Calm,-,N/A,,Clear,0,2013-09-25 05:15:00
12:35 AM,45.1,43.5,94,30.01,10.0,Calm,Calm,-,N/A,,Clear,0,2013-09-25 05:35:00
12:55 AM,43.2,41.9,95,30.01,7.0,Calm,Calm,-,N/A,,Clear,0,2013-09-25 05:55:00
1:15 AM,43.7,42.8,97,30.01,7.0,Calm,Calm,-,N/A,,Clear,0,2013-09-25 06:15:00
1:35 AM,41.9,41.0,97,30.02,7.0,Calm,Calm,-,N/A,,Clear,0,2013-09-25 06:35:00
1:55 AM,41.5,41.0,98,30.02,5.0,Calm,Calm,-,N/A,,Clear,0,2013-09-25 06:55:00
2:35 AM,41.0,40.1,97,30.02,7.0,Calm,Calm,-,N/A,,Clear,0,2013-09-25 07:35:00
2:55 AM,40.3,39.6,97,30.02,7.0,Calm,Calm,-,N/A,,Scattered Clouds,0,2013-09-25 07:55:00
3:15 AM,41.5,40.6,97,30.02,10.0,Calm,Calm,-,N/A,,Mostly Cloudy,0,2013-09-25 08:15:00
3:35 AM,39.4,38.8,98,30.02,5.0,Calm,Calm,-,N/A,,Mostly Cloudy,0,2013-09-25 08:35:00
3:55 AM,38.1,37.8,99,30.02,0.5,Calm,Calm,-,N/A,Fog,Fog,0,2013-09-25 08:55:00
4:35 AM,38.1,37.8,99,30.03,1.8,Calm,Calm,-,N/A,,Overcast,0,2013-09-25 09:35:00
4:55 AM,39.4,38.7,97,30.03,10.0,Calm,Calm,-,N/A,,Mostly Cloudy,0,2013-09-25 09:55:00
5:15 AM,37.6,36.3,95,30.03,10.0,NE,3.5,-,N/A,,Mostly Cloudy,40,2013-09-25 10:15:00
5:35 AM,38.5,37.8,97,30.03,7.0,Calm,Calm,-,N/A,,Mostly Cloudy,0,2013-09-25 10:35:00
5:55 AM,38.1,37.0,96,30.03,7.0,Calm,Calm,-,N/A,,Scattered Clouds,0,2013-09-25 10:55:00
6:15 AM,36.5,35.8,97,30.03,5.0,Calm,Calm,-,N/A,,Clear,0,2013-09-25 11:15:00
6:35 AM,37.0,35.8,95,30.03,10.0,Calm,Calm,-,N/A,,Clear,0,2013-09-25 11:35:00
6:55 AM,36.0,34.9,96,30.03,7.0,Calm,Calm,-,N/A,,Clear,0,2013-09-25 11:55:00
7:15 AM,37.6,36.7,97,30.04,5.0,Calm,Calm,-,N/A,,Clear,0,2013-09-25 12:15:00
7:35 AM,37.4,36.3,96,30.04,7.0,NNW,3.5,-,N/A,,Clear,340,2013-09-25 12:35:00
7:55 AM,40.3,39.7,98,30.04,3.0,Calm,Calm,-,N/A,,Clear,0,2013-09-25 12:55:00
8:15 AM,42.6,41.9,97,30.04,5.0,Calm,Calm,-,N/A,,Clear,0,2013-09-25 13:15:00
8:35 AM,45.1,43.9,95,30.05,7.0,Calm,Calm,-,N/A,,Clear,0,2013-09-25 13:35:00
8:55 AM,48.2,46.0,92,30.05,10.0,Calm,Calm,-,N/A,,Clear,0,2013-09-25 13:55:00
9:15 AM,50.9,47.5,88,30.05,10.0,Calm,Calm,-,N/A,,Clear,0,2013-09-25 14:15:00
9:35 AM,53.2,48.9,85,30.04,10.0,East,3.5,-,N/A,,Clear,80,2013-09-25 14:35:00
9:55 AM,56.5,48.7,75,30.04,10.0,East,6.9,-,N/A,,Clear,80,2013-09-25 14:55:00
10:15 AM,57.4,47.8,70,30.04,10.0,East,6.9,-,N/A,,Clear,90,2013-09-25 15:15:00
10:35 AM,58.6,48.0,68,30.04,10.0,East,6.9,-,N/A,,Scattered Clouds,80,2013-09-25 15:35:00
10:55 AM,58.6,48.2,68,30.04,10.0,East,6.9,-,N/A,,Scattered Clouds,80,2013-09-25 15:55:00
11:15 AM,59.7,48.9,67,30.04,10.0,East,5.8,-,N/A,,Mostly Cloudy,100,2013-09-25 16:15:00
11:35 AM,60.6,48.0,63,30.04,10.0,South,8.1,-,N/A,,Overcast,170,2013-09-25 16:35:00
11:55 AM,60.8,47.8,62,30.04,10.0,SE,9.2,-,N/A,,Mostly Cloudy,130,2013-09-25 16:55:00
12:15 PM,59.2,47.8,66,30.03,10.0,East,6.9,-,N/A,,Scattered Clouds,100,2013-09-25 17:15:00
12:35 PM,62.1,48.2,60,30.03,10.0,SSE,6.9,-,N/A,,Mostly Cloudy,150,2013-09-25 17:35:00
1:15 PM,62.2,48.4,60,30.02,10.0,East,8.1,-,N/A,,Scattered Clouds,100,2013-09-25 18:15:00
1:55 PM,64.2,48.6,57,30.01,10.0,East,5.8,-,N/A,,Clear,90,2013-09-25 18:55:00
2:15 PM,64.2,47.7,55,30.00,10.0,ESE,4.6,-,N/A,,Clear,120,2013-09-25 19:15:00
2:35 PM,64.8,48.6,56,29.99,10.0,South,4.6,-,N/A,,Clear,180,2013-09-25 19:35:00
2:55 PM,65.1,48.2,54,29.99,10.0,East,5.8,-,N/A,,Clear,100,2013-09-25 19:55:00
3:15 PM,64.9,47.8,54,30.00,10.0,ESE,5.8,-,N/A,,Clear,110,2013-09-25 20:15:00
3:35 PM,65.3,47.5,52,29.99,10.0,Calm,Calm,-,N/A,,Clear,0,2013-09-25 20:35:00
3:55 PM,65.3,47.1,52,29.99,10.0,SE,8.1,-,N/A,,Clear,130,2013-09-25 20:55:00
4:15 PM,65.5,47.7,53,29.98,10.0,ESE,5.8,-,N/A,,Clear,120,2013-09-25 21:15:00
4:35 PM,65.1,47.5,53,29.98,10.0,East,6.9,-,N/A,,Clear,100,2013-09-25 21:35:00
4:55 PM,65.1,47.7,53,29.99,10.0,SE,4.6,-,N/A,,Clear,130,2013-09-25 21:55:00
5:15 PM,64.6,48.4,56,29.99,10.0,SE,5.8,-,N/A,,Clear,130,2013-09-25 22:15:00
5:35 PM,64.0,48.9,58,29.99,10.0,East,5.8,-,N/A,,Clear,100,2013-09-25 22:35:00
5:55 PM,63.5,48.9,59,29.99,10.0,East,5.8,-,N/A,,Clear,90,2013-09-25 22:55:00
6:15 PM,62.2,49.1,62,29.98,10.0,East,6.9,-,N/A,,Clear,90,2013-09-25 23:15:00
6:35 PM,60.1,49.1,67,29.98,10.0,East,4.6,-,N/A,,Clear,90,2013-09-25 23:35:00
6:55 PM,57.6,48.7,72,29.98,10.0,East,4.6,-,N/A,,Clear,100,2013-09-25 23:55:00
7:15 PM,55.8,48.7,77,29.98,10.0,East,3.5,-,N/A,,Clear,90,2013-09-26 00:15:00
7:35 PM,54.3,48.0,79,29.99,10.0,Calm,Calm,-,N/A,,Clear,0,2013-09-26 00:35:00
7:55 PM,53.1,48.4,84,29.99,10.0,Calm,Calm,-,N/A,,Clear,0,2013-09-26 00:55:00
8:15 PM,50.2,46.6,87,30.00,10.0,Calm,Calm,-,N/A,,Clear,0,2013-09-26 01:15:00
8:35 PM,49.8,47.5,92,30.00,10.0,Calm,Calm,-,N/A,,Clear,0,2013-09-26 01:35:00
8:55 PM,48.4,46.2,92,30.00,10.0,Calm,Calm,-,N/A,,Clear,0,2013-09-26 01:55:00
9:15 PM,48.0,46.2,93,30.00,10.0,East,4.6,-,N/A,,Clear,90,2013-09-26 02:15:00
9:35 PM,50.2,47.3,90,30.01,10.0,East,4.6,-,N/A,,Clear,90,2013-09-26 02:35:00
9:55 PM,50.0,47.3,90,30.01,10.0,East,5.8,-,N/A,,Clear,90,2013-09-26 02:55:00
10:15 PM,49.6,47.5,92,30.01,10.0,East,4.6,-,N/A,,Clear,80,2013-09-26 03:15:00
10:35 PM,49.6,47.5,92,30.01,10.0,East,4.6,-,N/A,,Clear,90,2013-09-26 03:35:00
10:55 PM,49.1,47.7,95,30.02,7.0,Calm,Calm,-,N/A,,Clear,0,2013-09-26 03:55:00
11:15 PM,48.9,47.7,95,30.02,7.0,Calm,Calm,-,N/A,,Clear,0,2013-09-26 04:15:00
11:35 PM,48.4,47.5,97,30.02,4.0,Calm,Calm,-,N/A,,Clear,0,2013-09-26 04:35:00
11:55 PM,46.8,45.9,97,30.02,5.0,Calm,Calm,-,N/A,,Clear,0,2013-09-26 04:55:00